EHI
0 0 0 0 0 0 0 0 0 0 0 0 0 0 0 0 0 0 0 0 0 0 0 0 0 0 0 0 0 0 0 0 0 0 0 0 0 0 0 0 0 0 0 0
0 0 0 0 0 0 0 0 0 0 0 0 0 0 0 0 0 0 0 0 0 0 0 0 0 0 0 0 0 0 0 0 0 0 0 0 0 0 0 0 0 0 0 0
0 0 0 0 0 0 0 0 0 0 0 0 0 0 0 0 0 0 0 0 0 0 0 0 0 0 0 0 0 0 0 0 0 0 0 0 0 0 0 0 0 0 0 0
0 0 0 0 0 0 0 0 0 0 0 0 0 0 0 0 0 0 0 0 0 0 0 0 0 0 0 0 0 0 0 0 0 0 0 0 0 0 0 0 0 0 0 0
0 0 0 0 0 0 0 0 0 0 0 0 0 0 0 0 0 0 0 0 0 0 0 0 0 0 0 0 0 0 0 0 0 0 0 0 0 0 0 0 0 0 0 0
0 0 0 0 0 0 0 0 0 0 0 0 0 0 0 0 0 0 0 0 0 0 0 0 0 0 0 0 0 0 0 0 0 0 0 0 0 0 0 0 0 0 0 0
0 0 0 0 0 0 0 0 0 0 0 0 0 0 0 0 0 0 0 0 0 0 0 0 0 0 0 0 0 0 0 0 0 0 0 0 0 0 0 0 0 0 0 0
0 0 0 0 0 0 0 0 0 0 0 0 0 0 0 0 0 0 0 0 0 0 0 0 0 0 0 0 0 0 0 0 0 0 0 0 0 0 0 0 0 0 0 0
0 0 0 0 0 0 0 0 0 0 0 0 0 0 0 0 0 0 0 0 0 0 0 0 0 0 0 0 0 0 0 0 0 0 0 0 0 0 0 0 0 0 0 0
0 0 0 0 0 0 0 0 0 0 0 0 0 0 0 0 0 0 0 0 0 0 0 0 0 0 0 0 0 0 0 0 0 0 0 0 0 0 0 0 0 0 0 0
0 0 0 0 0 0 0 0 0 0 0 0 0 0 0 0 0 0 0 0 0 0 0 0 0 0 0 0 0 0 0 0 0 0 0 0 0 0 0 0 0 0 0 0
0 0 0 0 0 0 0 0 0 0 0 0 0 0 0 0 0 0 0 0 0 0 0 0 0 0 0 0 0 0 0 0 0 0 0 0 0 0 0 0 0 0 0 0
0 0 0 0 0 0 0 0 0 0 0 0 0 0 0 0 0 0 0 0 0 0 0 0 0 0 0 0 0 0 0 0 0 0 0 0 0 0 0 0 0 0 0 0
0 0 0 0 0 0 0 0 0 0 0 0 0 0 0 0 0 0 0 0 0 0 0 0 0 0 0 0 0 0 0 0 0 0 0 0 0 0 0 0 0 0 0 0
0 0 0 0 0 0 0 0 0 0 0 0 0 0 0 0 0 0 0 0 0 0 0 0 0 0 0 0 0 0 0 0 0 0 0 0 0 0 0 0 0 0 0 0
0 0 0 0 0 0 0 0 0 0 0 0 0 0 0 0 0 0 0 0 0 0 0 0 0 0 0 0 0 0 0 0 0 0 0 0 0 0 0 0 0 0 0 0
0 0 0 0 0 0 0 0 0 0 0 0 0 0 0 0 0 0 0 0 0 0 0 0 0 0 0 0 0 0 0 0 0 0 0 0 0 0 0 0 0 0 0 0
0 0 0 0 0 0 0 0 0 0 0 0 0 0 0 0 0 0 0 0 0 0 0 0 0 0 0 0 0 0 0 0 0 0 0 0 0 0 0 0 0 0 0 0
0 0 0 0 0 0 0 0 0 0 0 0 0 0 0 0 0 0 0 0 0 0 0 0 0 0 0 0 0 0 0 0 0 0 0 0 0 0 0 0 0 0 0 0
0 0 0 0 0 0 0 0 0 0 0 0 0 0 0 0 0 0 0 0 0 0 0 0 0 0 0 0 0 0 0 0 0 0 0 0 0 0 0 0 0 0 0 0
1 0 0 0 0 0 0 0 0 0 0 0 0 0 0 0 0 0 0 0 0 0 0 0 0 0 0 0 0 0 0 0 0 0 0 0 0 0 0 0 0 0 0 0
1 1 1 1 0 0 0 0 0 0 0 0 0 0 0 1 0 0 1 0 0 0 0 0 0 0 0 0 0 0 0 0 0 0 0 0 0 0 0 0 0 0 0 0
1 1 2 2 1 1 0 0 0 0 0 0 0 0 0 1 1 0 0 0 0 0 0 0 0 0 0 0 0 0 0 0 0 0 0 0 0 0 0 0 0 0 0 0
2 3 3 2 2 2 1 1 1 1 1 0 0 0 0 0 1 0 0 0 0 0 0 0 0 0 0 0 0 0 0 0 0 0 0 0 0 0 0 0 0 0 0 0
2 3 4 4 4 3 2 2 2 2 2 1 0 0 0 0 0 0 0 0 0 0 0 0 0 0 0 0 0 0 0 0 0 0 0 0 0 0 0 0 0 0 0 0
1 3 6 7 6 4 2 2 2 3 2 1 0 0 0 0 0 0 0 0 0 0 0 0 0 0 0 0 0 0 0 0 0 0 0 0 0 0 0 0 0 0 0 0
0 3 7 6 4 3 1 1 2 3 2 1 0 0 0 0 0 0 0 0 0 0 0 0 0 0 0 0 0 0 0 0 0 0 0 0 0 0 0 0 0 0 0 0
Wind_Speed
8 6 6 5 6 6 7 8 8 10 10 12 13 13 12 13 12 11 11 12 12 10 9 9 10 9 10 10 10 10 11 11 10 10 10 10 9 9 9 9 11 8 9 9
9 6 8 5 2 4 6 8 9 10 9 12 12 12 12 12 11 11 12 13 13 12 12 11 11 11 11 10 10 10 11 12 11 10 11 10 10 10 9 8 9 8 8 9
9 6 9 4 1 4 7 9 9 9 10 12 12 13 12 10 11 12 13 13 13 13 12 10 10 10 11 11 11 11 11 12 12 12 12 11 12 11 10 10 9 9 9 8
9 8 6 2 4 5 6 7 7 8 10 12 12 12 8 10 11 12 12 13 13 12 12 11 11 11 11 12 12 11 12 12 12 12 12 12 11 11 10 9 8 9 9 9
7 8 3 5 3 4 5 6 9 9 10 12 12 12 6 13 12 11 12 12 11 12 12 11 11 12 12 13 12 12 12 12 13 12 13 12 12 10 9 9 9 9 8 9
8 10 10 4 5 3 3 2 9 10 10 11 12 10 9 13 12 12 12 11 11 11 12 11 11 11 12 13 13 13 13 13 13 12 12 12 11 10 9 8 9 9 9 8
9 10 3 6 4 4 5 5 8 9 9 10 9 8 10 12 12 11 11 11 11 11 11 10 11 11 12 13 13 13 14 13 13 12 12 11 9 8 8 8 8 8 9 8
6 7 3 4 5 6 5 4 6 7 8 9 8 10 10 11 11 11 12 12 13 11 10 10 10 11 12 13 13 13 13 13 13 12 11 10 9 8 8 8 8 7 7 6
4 3 3 4 5 5 4 4 5 6 7 8 9 10 10 11 11 11 12 12 11 12 12 10 10 10 12 12 13 13 14 13 12 12 10 9 8 8 7 6 5 5 5 4
3 2 1 1 4 4 3 3 4 4 6 7 9 10 10 10 10 10 11 11 11 12 12 12 11 11 11 11 11 13 14 13 11 10 9 8 6 6 5 5 5 5 4 4
5 4 3 2 3 3 2 2 3 4 5 6 8 9 9 9 9 10 10 10 10 11 11 12 12 12 11 11 12 13 13 12 11 9 8 7 6 5 5 4 4 5 4 3
2 1 2 1 4 2 1 1 2 3 5 6 7 8 9 9 9 9 10 10 10 11 12 12 12 12 11 11 12 12 11 11 9 8 7 6 6 5 4 4 4 4 3 3
1 1 0 3 2 2 1 1 1 1 3 5 6 7 8 8 8 9 10 11 11 12 12 11 12 12 12 12 12 11 11 10 9 8 7 6 6 6 5 3 3 4 4 3
1 0 1 1 2 2 1 1 0 1 2 3 5 6 7 8 9 10 10 10 11 11 11 11 12 12 12 12 12 12 11 10 9 7 6 6 6 5 5 4 3 1 1 3
3 4 5 4 3 3 3 2 2 2 2 3 4 5 7 8 9 9 9 9 10 11 11 11 12 12 13 12 12 12 10 8 8 8 7 6 5 5 4 4 3 2 0 1
5 6 6 5 5 5 5 4 3 2 2 3 4 5 6 7 8 8 9 9 10 11 10 11 11 12 13 12 12 10 8 9 10 8 7 6 5 5 4 4 4 3 2 1
6 7 7 6 6 6 5 4 3 1 2 2 3 4 6 7 8 8 9 9 9 8 8 9 11 12 12 11 11 9 8 8 9 8 7 6 6 6 5 4 4 3 2 2
6 7 7 6 6 6 5 4 3 2 1 1 3 4 5 6 7 8 8 9 8 8 8 9 11 12 11 10 10 9 8 7 7 7 6 6 6 5 5 4 4 3 2 1
5 5 5 5 5 4 4 4 3 2 1 1 2 3 4 5 6 7 7 8 8 8 9 10 12 11 10 10 11 8 8 8 7 7 6 6 6 6 6 5 4 3 2 2
4 4 4 3 3 3 4 4 4 3 3 2 2 4 4 5 5 6 6 6 4 5 8 9 10 9 10 10 12 8 8 7 7 7 6 6 6 6 6 5 5 4 4 2
5 5 4 3 3 4 4 4 4 5 4 4 4 4 4 4 5 5 5 5 3 5 8 7 5 7 9 11 11 7 7 7 6 6 6 5 5 6 6 5 4 4 3 3
6 6 5 4 3 3 4 4 5 6 5 5 5 5 4 4 5 4 3 2 3 4 6 6 6 8 11 13 7 7 6 6 5 5 5 5 4 4 5 6 5 4 3 3
7 7 7 6 5 4 5 6 7 7 7 6 5 5 4 3 4 5 4 2 2 4 5 4 5 9 13 8 6 6 6 7 6 6 5 5 4 5 5 6 5 5 4 4
8 8 8 8 7 7 7 8 8 7 7 7 7 5 4 4 4 3 1 4 2 2 4 2 3 8 10 5 5 6 6 6 6 6 6 6 5 5 5 6 6 5 5 5
10 10 10 9 9 8 8 8 9 9 9 7 8 8 7 5 3 2 1 0 2 2 4 1 3 6 6 5 5 6 5 6 6 6 6 6 6 5 5 5 5 5 5 6
10 10 9 8 8 7 8 8 8 8 8 8 7 6 5 4 4 3 2 3 2 1 3 2 1 2 3 4 5 6 6 5 5 5 6 6 6 6 6 6 7 6 6 6
12 10 8 9 9 9 9 8 8 7 7 7 7 6 4 3 3 3 3 2 1 1 1 2 2 3 3 4 4 4 5 5 6 6 6 5 6 6 6 7 6 6 6 7
Wind_Direction
323 332 340 350 358 8 11 358 346 349 358 31 18 7 359 352 344 344 353 352 349 347 344 339 337 334 330 329 328 324 318 312 309 308 305 302 298 294 290 287 286 283 280 272
311 322 310 308 342 359 358 353 347 341 8 24 5 358 351 345 350 358 352 347 345 342 340 338 335 331 330 327 324 321 315 311 310 309 307 302 298 294 292 289 284 280 277 274
309 294 295 320 36 13 0 353 344 352 11 3 354 352 346 1 14 356 349 346 344 341 337 334 333 334 328 325 323 317 312 311 311 311 308 304 302 301 298 296 291 285 277 272
296 297 313 87 64 45 7 348 4 17 8 360 354 342 358 37 15 358 351 345 341 336 333 334 337 335 329 326 321 317 315 315 316 315 311 309 305 298 294 291 286 283 280 276
303 307 338 131 96 39 357 357 36 16 360 355 347 328 30 29 10 359 351 344 338 335 335 336 336 335 329 323 323 321 320 319 318 315 311 307 303 299 297 292 287 281 277 271
289 302 315 99 105 39 311 95 30 8 359 350 350 337 348 2 360 355 349 342 339 339 337 336 337 334 327 325 325 324 323 320 316 312 309 304 300 298 296 290 282 280 275 266
283 290 17 77 57 342 331 29 6 360 355 355 359 335 338 351 355 351 345 342 345 342 336 336 336 333 328 327 326 326 321 316 312 309 307 302 301 299 295 290 285 281 280 272
277 295 42 33 18 34 43 16 355 356 356 354 342 339 346 352 350 346 343 345 344 338 335 336 337 335 330 328 327 324 320 316 313 310 311 314 310 303 300 295 290 285 281 278
0 15 105 56 64 77 56 8 1 357 354 349 343 343 348 350 346 344 344 343 341 338 334 337 340 337 330 328 326 324 321 319 316 314 313 312 310 308 307 302 297 293 289 286
304 273 142 89 96 86 60 24 358 357 356 353 343 343 348 345 343 344 343 341 340 338 337 339 340 335 332 330 328 325 322 321 319 317 319 320 316 314 314 313 310 306 304 300
267 267 261 194 101 79 62 25 359 5 0 353 345 346 347 342 345 344 340 340 339 339 336 337 337 335 336 335 331 327 323 323 321 320 322 318 321 322 317 318 307 297 306 310
293 23 266 105 115 105 95 7 14 357 347 348 351 347 345 343 344 342 339 340 339 339 338 337 336 335 337 338 334 328 324 324 321 322 326 324 322 324 317 293 282 269 271 292
309 283 334 96 115 130 156 119 61 359 342 344 351 350 345 344 343 343 340 341 341 340 339 340 338 338 342 339 332 327 323 322 321 325 326 325 328 326 323 314 276 275 276 271
100 130 231 223 210 155 172 152 257 305 351 358 352 351 348 343 341 342 343 343 342 339 340 343 340 343 342 336 331 329 326 326 326 325 326 327 329 328 329 331 331 314 240 233
197 221 225 204 194 175 186 220 248 290 348 351 350 355 349 342 340 340 344 344 342 339 344 345 343 344 339 334 333 329 327 329 331 325 326 328 329 332 341 341 334 330 2 177
231 235 228 211 211 209 216 236 254 293 331 343 351 352 344 338 338 339 345 349 345 342 345 345 344 342 335 334 333 328 326 324 323 324 327 332 339 342 350 347 347 356 7 31
237 235 235 234 226 222 228 237 244 272 322 345 346 342 340 338 336 343 346 349 343 339 347 348 346 339 333 335 335 330 331 330 328 330 338 343 345 346 354 1 3 7 25 32
245 245 239 230 234 232 223 221 207 186 233 319 326 340 338 335 339 342 341 339 335 340 356 354 349 333 331 339 337 327 326 330 336 339 341 351 350 345 356 10 12 20 39 49
266 259 254 239 226 215 215 205 191 178 175 257 307 317 320 329 336 334 335 332 334 345 355 348 338 330 337 344 340 322 328 338 344 347 350 357 356 3 10 16 18 18 38 49
294 286 272 250 223 209 198 185 182 185 191 215 268 292 308 325 328 327 328 324 357 4 339 336 331 337 340 344 339 324 331 343 350 354 360 3 5 9 15 16 11 15 26 40
323 308 293 267 226 200 192 192 196 204 205 216 247 272 292 309 313 315 315 321 26 21 332 319 326 347 344 334 318 318 335 347 352 356 3 5 5 7 11 15 17 21 25 30
336 324 313 301 274 223 189 187 208 220 219 222 240 259 280 290 296 299 292 324 8 30 330 334 359 352 335 325 319 333 342 348 350 357 359 3 8 6 5 13 23 24 19 34
335 325 311 298 281 255 220 207 211 217 222 226 234 246 264 289 295 300 310 24 15 9 321 348 353 332 327 321 326 341 350 354 353 355 358 5 10 12 12 15 23 25 20 26
318 311 303 293 282 264 245 230 217 213 218 222 226 218 220 248 251 247 323 125 127 320 312 11 325 321 317 316 335 347 352 356 356 353 356 1 4 18 22 16 18 23 28 35
304 297 289 280 271 262 248 236 227 216 218 222 225 207 206 220 242 280 325 104 139 258 301 216 236 297 311 338 353 353 355 2 355 351 357 0 5 20 23 16 17 24 30 38
294 284 280 270 266 265 260 246 238 224 215 217 221 214 206 193 188 195 218 239 223 227 292 320 323 292 332 357 5 355 351 358 358 5 7 3 5 14 20 18 27 31 30 33
283 276 265 262 258 252 251 248 242 232 219 212 216 209 192 183 189 207 222 245 258 259 321 351 2 1 6 13 13 3 0 5 5 4 7 9 13 16 19 21 29 33 38 44